Flag for Switzerland Weather past 2 weeks in Thun, Bern, Switzerland

Now
55 °F

Passing clouds.


Feels Like: 53 °F
Forecast: 54 / 65 °F
Wind: 8 mph from East

Location: Bern / Belp

Current Time: May 5, 2015 at 5:14:18 AM

Latest Report: May 5, 2015 at 4:50 AM


Visibility: N/A

Pressure: 29.68 "Hg

Humidity: 100%

Dew point: 55 °F

Location of ThunLocation

Historic Weather in Thun — Graph

°F

Thun temperature yesterday

Maximum temperature yesterday: 70 °F (at 5:20 PM)
Minimum temperature yesterday: 57 °F (at 4:20 AM)
Average temperature yesterday: 62 °F

Past Weeks' High & Low Weather Summary

 TemperatureHumidityPressure
High73 °F (Apr 22, 5:20 PM)100% (Apr 20, 3:20 AM)30.33 "Hg (Apr 20, 3:20 AM)
Low32 °F (Apr 21, 6:20 AM)17% (Apr 22, 6:20 PM)29.50 "Hg (Apr 27, 2:20 PM)
Average53 °F76%29.95 "Hg
* Reported Apr 20 3:20 AM — May 5 3:50 AM, Thun, Weather by CustomWeather, © 2015

Note: Actual official high and low records may vary slightly from our data, if they occured in-between our weather recording intervals... More about our weather records

Advertising

Thun weather history for previous 24 hours

 ConditionsComfort  
Time TempWeatherWind HumidityBarometerVisibility
3:50 AM
Tue, May 5
55 °FCool.2 mph100%29.71 "HgN/A
3:20 AM55 °FCool.7 mph100%29.71 "Hg5 mi
2:50 AM55 °FFog.3 mph100%29.71 "Hg2 mi
2:20 AM57 °FFog.3 mph94%29.71 "Hg3 mi
1:50 AM55 °FClear.2 mph94%29.71 "Hg3 mi
1:20 AM55 °FPassing clouds.5 mph94%29.71 "Hg4 mi
12:50 AM55 °FCool.3 mph100%29.71 "Hg6 mi
12:20 AM55 °FCool.2 mph100%29.71 "Hg3 mi
11:50 PM
Mon, May 4
59 °FPassing clouds.2 mph94%29.71 "Hg4 mi
10:50 PM61 °FCool.5 mph94%29.74 "HgN/A
10:20 PM61 °FPassing clouds.3 mph94%29.77 "HgN/A
9:50 PM63 °FPartly cloudy.6 mph94%29.80 "HgN/A
9:20 PM61 °FBroken clouds.2 mph94%29.77 "HgN/A
8:50 PM64 °FBroken clouds.5 mph88%29.77 "HgN/A
8:20 PM64 °FBroken clouds.6 mph88%29.77 "HgN/A
7:50 PM66 °FBroken clouds.5 mph83%29.77 "HgN/A
7:20 PM68 °FPartly sunny.3 mph78%29.77 "HgN/A
6:50 PM70 °FPartly sunny.2 mph73%29.80 "HgN/A
6:20 PM70 °FScattered clouds.2 mph73%29.80 "HgN/A
5:50 PM70 °FPartly sunny.2 mph73%29.80 "HgN/A
5:20 PM70 °FPartly sunny.3 mph69%29.83 "HgN/A
4:50 PM68 °FPartly sunny.1 mph73%29.83 "HgN/A
4:20 PM68 °FBroken clouds.3 mph73%29.86 "HgN/A
3:50 PM68 °FPartly sunny.2 mph73%29.86 "HgN/A
3:20 PM68 °FPartly sunny.2 mph69%29.86 "HgN/A
2:50 PM68 °FPartly sunny.3 mph73%29.86 "HgN/A
2:20 PM66 °FBroken clouds.2 mph78%29.89 "HgN/A
1:50 PM64 °FPartly sunny.3 mph83%29.89 "HgN/A
1:20 PM63 °FSprinkles. More clouds than sun.6 mph88%29.92 "HgN/A
12:50 PM63 °FBroken clouds.6 mph88%29.92 "HgN/A
12:20 PM63 °FBroken clouds.5 mph88%29.92 "HgN/A
11:50 AM63 °FPartly sunny.2 mph83%29.92 "HgN/A
11:20 AM63 °FMostly cloudy.1 mph88%29.89 "HgN/A
10:50 AM61 °FPartly sunny.5 mph94%29.89 "HgN/A
10:20 AM61 °FSprinkles. More clouds than sun.6 mph94%29.92 "HgN/A
9:50 AM59 °FLight rain. More clouds than sun.6 mph94%29.92 "HgN/A
9:20 AM57 °FLight rain. More clouds than sun.5 mph100%29.92 "HgN/A
8:50 AM57 °FLight rain. More clouds than sun.3 mph100%29.92 "Hg6 mi
8:20 AM57 °FLight rain. More clouds than sun.7 mph100%29.92 "HgN/A
7:50 AM57 °FDrizzle. More clouds than sun.6 mph94%29.92 "HgN/A
7:20 AM57 °FLight rain. More clouds than sun.7 mph94%29.92 "HgN/A
6:50 AM57 °FLight rain. Mostly cloudy.8 mph94%29.92 "HgN/A
6:20 AM57 °FRain. Mostly cloudy.6 mph94%29.92 "Hg5 mi
5:50 AM57 °FSprinkles. Mostly cloudy.6 mph100%29.89 "Hg5 mi
5:20 AM57 °FSprinkles. Passing clouds.7 mph100%29.89 "Hg4 mi
Weather by CustomWeather, © 2015

See weather overviewHow to use our weather pages